{"data":{"norad_id":66311,"epoch":"2026-05-25T04:05:45.234816Z","epoch_age_seconds":54324,"freshness":"FRESH","line1":"1 66311U 25249B   26145.17066244 -.00000079  00000+0  00000+0 0  9992","line2":"2 66311   0.0070  29.3827 0002408  11.7721 337.0123  1.00271920  2115","mean_motion":1.0027192,"eccentricity":0.0002408,"inclination_deg":0.007,"raan_deg":29.3827,"arg_perigee_deg":11.7721,"mean_anomaly_deg":337.0123,"bstar":0,"rev_number":211,"period_min":1436.0949705561,"perigee_km":35776.403857489,"apogee_km":35796.710374176,"semimajor_km":42164.694115832,"source":"CELESTRAK","updated_at":"2026-05-25T13:38:14.155740Z"}}